DAL1969 KJAX-KFLL

Flight info

Callsign DAL1969
Flight time 1h 1m
Altitude 35000
Route EXBOX2 EXBOX PRMUS CUUDA3
Aircraft A21N/M-SDE2E3FGHIRWXY/LB1

Departure

Time 2026-05-03 21:29
Airport Jacksonville International Airport (KJAX)

Arrival

Time 2026-05-03 22:30
Airport Fort Lauderdale Hollywood International Airport (KFLL)
Time Latitude Longitude Altitude Speed Heading
2026-05-03 21:08 30.49082 -81.68658 43 ft 0 kts 115°
2026-05-03 21:21 30.49089 -81.68675 41 ft 3 kts 115°
2026-05-03 21:21 30.49097 -81.68694 41 ft 3 kts 121°
2026-05-03 21:21 30.49111 -81.68707 41 ft 3 kts 182°
2026-05-03 21:21 30.49120 -81.68705 40 ft 0 kts 206°
2026-05-03 21:23 30.49119 -81.68705 39 ft 1 kts 206°
2026-05-03 21:23 30.49092 -81.68728 43 ft 11 kts 219°
2026-05-03 21:24 30.49024 -81.68802 40 ft 13 kts 266°
2026-05-03 21:24 30.49053 -81.68891 41 ft 11 kts 297°
2026-05-03 21:24 30.49087 -81.68971 40 ft 13 kts 296°
2026-05-03 21:24 30.49090 -81.69071 42 ft 14 kts 237°
2026-05-03 21:25 30.49022 -81.69173 41 ft 18 kts 232°
2026-05-03 21:25 30.48937 -81.69298 37 ft 21 kts 231°
2026-05-03 21:25 30.48943 -81.69420 39 ft 17 kts 309°
2026-05-03 21:25 30.49031 -81.69541 41 ft 22 kts 311°
2026-05-03 21:26 30.49145 -81.69694 41 ft 28 kts 312°
2026-05-03 21:26 30.49268 -81.69860 39 ft 24 kts 309°
2026-05-03 21:26 30.49378 -81.69934 39 ft 19 kts
2026-05-03 21:26 30.49495 -81.69931 37 ft 12 kts 341°
2026-05-03 21:27 30.49507 -81.69935 37 ft 0 kts 340°
2026-05-03 21:27 30.49522 -81.69942 37 ft 7 kts 340°
2026-05-03 21:28 30.49579 -81.69963 37 ft 9 kts 346°
2026-05-03 21:28 30.49639 -81.69945 38 ft 11 kts 63°
2026-05-03 21:28 30.49686 -81.69784 40 ft 49 kts 70°
2026-05-03 21:28 30.49880 -81.69151 43 ft 120 kts 70°
2026-05-03 21:29 30.50236 -81.67989 178 ft 171 kts 70°
2026-05-03 21:29 30.50646 -81.66630 841 ft 180 kts 70°
2026-05-03 21:29 30.50785 -81.65234 1800 ft 175 kts 99°
2026-05-03 21:29 30.50447 -81.63858 2504 ft 183 kts 110°
2026-05-03 21:30 30.49943 -81.62400 2863 ft 209 kts 114°
2026-05-03 21:30 30.49162 -81.60828 3058 ft 242 kts 125°
2026-05-03 21:30 30.48024 -81.59297 3580 ft 254 kts 138°
2026-05-03 21:30 30.46672 -81.57917 4318 ft 265 kts 139°
2026-05-03 21:31 30.45266 -81.56534 5140 ft 272 kts 140°
2026-05-03 21:31 30.43800 -81.55135 6095 ft 273 kts 141°
2026-05-03 21:31 30.42317 -81.53749 7014 ft 275 kts 141°
2026-05-03 21:31 30.40810 -81.52357 7835 ft 279 kts 142°
2026-05-03 21:32 30.39274 -81.50948 8655 ft 284 kts 142°
2026-05-03 21:32 30.37717 -81.49524 9468 ft 287 kts 142°
2026-05-03 21:32 30.36137 -81.48084 10223 ft 294 kts 142°
2026-05-03 21:32 30.34466 -81.46561 10510 ft 318 kts 142°
2026-05-03 21:33 30.32657 -81.44916 10698 ft 343 kts 142°
2026-05-03 21:33 30.30753 -81.43184 11062 ft 359 kts 142°
2026-05-03 21:33 30.28778 -81.41389 11823 ft 362 kts 142°
2026-05-03 21:33 30.26792 -81.39585 12662 ft 363 kts 142°
2026-05-03 21:34 30.24797 -81.37773 13415 ft 367 kts 142°
2026-05-03 21:34 30.22773 -81.35937 14113 ft 372 kts 142°
2026-05-03 21:34 30.20725 -81.34079 14799 ft 376 kts 142°
2026-05-03 21:34 30.18658 -81.32205 15470 ft 380 kts 142°
2026-05-03 21:35 30.16571 -81.30314 16119 ft 384 kts 142°
2026-05-03 21:35 30.14459 -81.28402 16745 ft 387 kts 142°
2026-05-03 21:35 30.12358 -81.26500 17338 ft 391 kts 142°
2026-05-03 21:35 30.10207 -81.24554 17921 ft 394 kts 142°
2026-05-03 21:36 30.08037 -81.22594 18490 ft 398 kts 142°
2026-05-03 21:36 30.05830 -81.20651 19024 ft 401 kts 146°
2026-05-03 21:36 30.03374 -81.19109 19551 ft 404 kts 160°
2026-05-03 21:36 30.00650 -81.18323 20051 ft 406 kts 172°
2026-05-03 21:37 29.97834 -81.17948 20575 ft 409 kts 175°
2026-05-03 21:37 29.94989 -81.17665 21044 ft 412 kts 175°
2026-05-03 21:37 29.92115 -81.17390 21518 ft 415 kts 175°
2026-05-03 21:37 29.89272 -81.16884 22211 ft 410 kts 165°
2026-05-03 21:38 29.86657 -81.15763 23325 ft 393 kts 153°
2026-05-03 21:38 29.84329 -81.14205 24243 ft 384 kts 148°
2026-05-03 21:38 29.82078 -81.12617 24636 ft 387 kts 151°
2026-05-03 21:38 29.79653 -81.11221 24891 ft 393 kts 155°
2026-05-03 21:39 29.77140 -81.09937 25227 ft 396 kts 157°
2026-05-03 21:39 29.74602 -81.08685 25607 ft 397 kts 157°
2026-05-03 21:39 29.72054 -81.07437 25972 ft 399 kts 157°
2026-05-03 21:39 29.69493 -81.06185 26304 ft 401 kts 157°
2026-05-03 21:40 29.66921 -81.04927 26624 ft 403 kts 157°
2026-05-03 21:40 29.64328 -81.03658 26927 ft 405 kts 157°
2026-05-03 21:40 29.61724 -81.02385 27243 ft 407 kts 157°
2026-05-03 21:40 29.59147 -81.01124 27519 ft 409 kts 157°
2026-05-03 21:41 29.56521 -80.99841 27768 ft 412 kts 157°
2026-05-03 21:41 29.53859 -80.98540 27867 ft 419 kts 157°
2026-05-03 21:41 29.51158 -80.97222 27945 ft 426 kts 157°
2026-05-03 21:41 29.48408 -80.95880 28016 ft 433 kts 157°
2026-05-03 21:42 29.42781 -80.93136 28182 ft 445 kts 157°
2026-05-03 21:42 29.39932 -80.91749 28465 ft 445 kts 157°
2026-05-03 21:42 29.37084 -80.90362 28876 ft 443 kts 157°
2026-05-03 21:43 29.34295 -80.89005 29253 ft 440 kts 157°
2026-05-03 21:43 29.31478 -80.87635 29578 ft 440 kts 157°
2026-05-03 21:43 29.28665 -80.86268 29914 ft 440 kts 157°
2026-05-03 21:43 29.25846 -80.84898 30220 ft 440 kts 157°
2026-05-03 21:44 29.23032 -80.83532 30539 ft 439 kts 157°
2026-05-03 21:44 29.20221 -80.82168 30847 ft 438 kts 157°
2026-05-03 21:44 29.17412 -80.80807 31146 ft 438 kts 157°
2026-05-03 21:44 29.14614 -80.79451 31447 ft 437 kts 157°
2026-05-03 21:45 29.11809 -80.78093 31712 ft 437 kts 157°
2026-05-03 21:45 29.09011 -80.76739 31976 ft 436 kts 157°
2026-05-03 21:45 29.06255 -80.75406 32233 ft 436 kts 157°
2026-05-03 21:45 29.03461 -80.74056 32491 ft 436 kts 157°
2026-05-03 21:46 29.00671 -80.72708 32718 ft 435 kts 157°
2026-05-03 21:46 28.97886 -80.71365 32953 ft 435 kts 158°
2026-05-03 21:46 28.95085 -80.70071 33179 ft 434 kts 158°
2026-05-03 21:46 28.93185 -80.69215 33324 ft 434 kts 159°
2026-05-03 21:47 28.89463 -80.67551 33602 ft 434 kts 159°
2026-05-03 21:47 28.86654 -80.66297 33804 ft 433 kts 159°
2026-05-03 21:47 28.84797 -80.65468 33929 ft 433 kts 159°
2026-05-03 21:47 28.81988 -80.64213 33991 ft 434 kts 159°
2026-05-03 21:48 28.75458 -80.61298 34000 ft 433 kts 159°
2026-05-03 21:48 28.69843 -80.58794 34000 ft 433 kts 159°
2026-05-03 21:49 28.64230 -80.56293 34001 ft 433 kts 159°
2026-05-03 21:49 28.59561 -80.54214 34000 ft 433 kts 159°
2026-05-03 21:50 28.53948 -80.51719 33999 ft 433 kts 159°
2026-05-03 21:50 28.48336 -80.49226 34000 ft 433 kts 159°
2026-05-03 21:51 28.42723 -80.46737 33999 ft 433 kts 159°
2026-05-03 21:51 28.37136 -80.44261 34000 ft 433 kts 159°
2026-05-03 21:52 28.31521 -80.41775 34001 ft 433 kts 159°
2026-05-03 21:52 28.25903 -80.39292 34000 ft 433 kts 159°
2026-05-03 21:53 28.20288 -80.36812 34001 ft 433 kts 159°
2026-05-03 21:53 28.14668 -80.34333 34000 ft 433 kts 159°
2026-05-03 21:54 28.09039 -80.31884 33999 ft 433 kts 160°
2026-05-03 21:54 28.03373 -80.29643 34001 ft 438 kts 161°
2026-05-03 21:55 27.97559 -80.27378 34000 ft 445 kts 161°
2026-05-03 21:55 27.91697 -80.25092 34000 ft 445 kts 161°
2026-05-03 21:56 27.85840 -80.22809 34001 ft 445 kts 161°
2026-05-03 21:56 27.79996 -80.20532 33738 ft 443 kts 161°
2026-05-03 21:57 27.77079 -80.19397 33373 ft 443 kts 161°
2026-05-03 21:57 27.74203 -80.18278 32911 ft 443 kts 161°
2026-05-03 21:57 27.71280 -80.17141 32402 ft 444 kts 161°
2026-05-03 21:57 27.68353 -80.16003 31899 ft 445 kts 161°
2026-05-03 21:58 27.65428 -80.14867 31400 ft 446 kts 161°
2026-05-03 21:58 27.62486 -80.13720 30900 ft 447 kts 160°
2026-05-03 21:58 27.59564 -80.12535 30400 ft 445 kts 160°
2026-05-03 21:58 27.56668 -80.11341 29897 ft 442 kts 160°
2026-05-03 21:59 27.53798 -80.10156 29396 ft 438 kts 160°
2026-05-03 21:59 27.50943 -80.08977 28894 ft 435 kts 160°
2026-05-03 21:59 27.48115 -80.07811 28393 ft 431 kts 160°
2026-05-03 21:59 27.45341 -80.06668 27900 ft 428 kts 160°
2026-05-03 22:00 27.42558 -80.05522 27345 ft 425 kts 160°
2026-05-03 22:00 27.39787 -80.04383 26737 ft 423 kts 160°
2026-05-03 22:00 27.36984 -80.03375 26145 ft 421 kts 164°
2026-05-03 22:00 27.34178 -80.02494 25576 ft 418 kts 165°
2026-05-03 22:01 27.31379 -80.01644 24988 ft 415 kts 165°
2026-05-03 22:01 27.28603 -80.00803 24425 ft 412 kts 165°
2026-05-03 22:01 27.25855 -79.99950 23847 ft 409 kts 163°
2026-05-03 22:01 27.23149 -79.99013 23294 ft 405 kts 162°
2026-05-03 22:02 27.20476 -79.98051 22774 ft 401 kts 162°
2026-05-03 22:02 27.17856 -79.97102 22242 ft 390 kts 162°
2026-05-03 22:02 27.15344 -79.96192 21748 ft 379 kts 162°
2026-05-03 22:02 27.12849 -79.95290 21249 ft 375 kts 162°
2026-05-03 22:03 27.10375 -79.94396 20748 ft 371 kts 162°
2026-05-03 22:03 27.07926 -79.93511 20250 ft 368 kts 162°
2026-05-03 22:03 27.05512 -79.92580 19736 ft 365 kts 161°
2026-05-03 22:03 27.03130 -79.91624 19249 ft 363 kts 160°
2026-05-03 22:04 27.00777 -79.90673 18747 ft 360 kts 160°
2026-05-03 22:04 26.98426 -79.89721 18258 ft 357 kts 160°
2026-05-03 22:04 26.96095 -79.88779 17801 ft 356 kts 160°
2026-05-03 22:04 26.93776 -79.87843 17321 ft 353 kts 160°
2026-05-03 22:05 26.91477 -79.86916 16846 ft 350 kts 160°
2026-05-03 22:05 26.89194 -79.85995 16370 ft 346 kts 160°
2026-05-03 22:05 26.86958 -79.85095 15883 ft 337 kts 160°
2026-05-03 22:05 26.84824 -79.84236 15417 ft 324 kts 160°
2026-05-03 22:06 26.82728 -79.83392 14937 ft 317 kts 160°
2026-05-03 22:06 26.80662 -79.82562 14472 ft 315 kts 160°
2026-05-03 22:06 26.78610 -79.81737 14081 ft 311 kts 160°
2026-05-03 22:06 26.76580 -79.80921 13714 ft 309 kts 160°
2026-05-03 22:07 26.74563 -79.80110 13340 ft 307 kts 160°
2026-05-03 22:07 26.72554 -79.79311 12970 ft 306 kts 162°
2026-05-03 22:07 26.70490 -79.78807 12606 ft 303 kts 177°
2026-05-03 22:07 26.68411 -79.79004 12306 ft 300 kts 194°
2026-05-03 22:08 26.66418 -79.79681 12011 ft 299 kts 199°
2026-05-03 22:08 26.64468 -79.80475 11711 ft 298 kts 201°
2026-05-03 22:08 26.62532 -79.81285 11411 ft 297 kts 201°
2026-05-03 22:08 26.60597 -79.82092 11125 ft 296 kts 200°
2026-05-03 22:09 26.58699 -79.82877 10813 ft 294 kts 200°
2026-05-03 22:09 26.56784 -79.83664 10513 ft 293 kts 200°
2026-05-03 22:09 26.54886 -79.84490 10212 ft 292 kts 202°
2026-05-03 22:10 26.51158 -79.86228 9604 ft 289 kts 203°
2026-05-03 22:10 26.49310 -79.87098 9310 ft 288 kts 203°
2026-05-03 22:10 26.47474 -79.87962 9043 ft 287 kts 203°
2026-05-03 22:10 26.45635 -79.88827 8792 ft 285 kts 203°
2026-05-03 22:11 26.43809 -79.89685 8540 ft 284 kts 203°
2026-05-03 22:11 26.41990 -79.90540 8291 ft 283 kts 203°
2026-05-03 22:11 26.40202 -79.91379 8041 ft 282 kts 203°
2026-05-03 22:11 26.38412 -79.92270 7945 ft 282 kts 207°
2026-05-03 22:12 26.36688 -79.93306 7942 ft 281 kts 210°
2026-05-03 22:12 26.34993 -79.94386 7941 ft 281 kts 210°
2026-05-03 22:12 26.33302 -79.95475 7941 ft 281 kts 210°
2026-05-03 22:12 26.31613 -79.96565 7940 ft 281 kts 210°
2026-05-03 22:13 26.29920 -79.97654 7941 ft 281 kts 210°
2026-05-03 22:13 26.28231 -79.98740 7940 ft 281 kts 210°
2026-05-03 22:13 26.26541 -79.99827 7932 ft 280 kts 210°
2026-05-03 22:13 26.24865 -80.00905 7670 ft 278 kts 210°
2026-05-03 22:14 26.23205 -80.01971 7419 ft 279 kts 210°
2026-05-03 22:14 26.21530 -80.03048 7186 ft 278 kts 210°
2026-05-03 22:14 26.19857 -80.04132 6960 ft 277 kts 212°
2026-05-03 22:14 26.18377 -80.05486 6720 ft 275 kts 231°
2026-05-03 22:15 26.17419 -80.07311 6508 ft 274 kts 247°
2026-05-03 22:15 26.16757 -80.09297 6284 ft 273 kts 251°
2026-05-03 22:15 26.16164 -80.11306 6061 ft 273 kts 252°
2026-05-03 22:15 26.15580 -80.13313 5835 ft 272 kts 252°
2026-05-03 22:16 26.15116 -80.15341 5607 ft 271 kts 263°
2026-05-03 22:16 26.14994 -80.17431 5383 ft 270 kts 269°
2026-05-03 22:16 26.14991 -80.19508 5155 ft 269 kts 270°
2026-05-03 22:16 26.15012 -80.21594 4972 ft 269 kts 270°
2026-05-03 22:17 26.15033 -80.23671 4941 ft 268 kts 270°
2026-05-03 22:17 26.15049 -80.25748 4942 ft 268 kts 270°
2026-05-03 22:17 26.15062 -80.27791 4939 ft 268 kts 270°
2026-05-03 22:17 26.15072 -80.29860 4941 ft 268 kts 270°
2026-05-03 22:18 26.15081 -80.31931 4944 ft 268 kts 270°
2026-05-03 22:18 26.15089 -80.34000 4942 ft 265 kts 270°
2026-05-03 22:18 26.15097 -80.35976 4938 ft 245 kts 270°
2026-05-03 22:18 26.15105 -80.37781 4956 ft 222 kts 270°
2026-05-03 22:19 26.15112 -80.39415 4951 ft 201 kts 270°
2026-05-03 22:19 26.15120 -80.40942 4940 ft 195 kts 270°
2026-05-03 22:19 26.15128 -80.42445 4941 ft 193 kts 270°
2026-05-03 22:19 26.15136 -80.43939 4939 ft 193 kts 270°
2026-05-03 22:20 26.15144 -80.45432 4942 ft 193 kts 270°
2026-05-03 22:20 26.15151 -80.46904 4941 ft 193 kts 270°
2026-05-03 22:20 26.15160 -80.48398 4938 ft 193 kts 270°
2026-05-03 22:20 26.15168 -80.49891 4941 ft 193 kts 270°
2026-05-03 22:21 26.15177 -80.51385 4941 ft 193 kts 270°
2026-05-03 22:21 26.15186 -80.52874 4939 ft 193 kts 270°
2026-05-03 22:21 26.15196 -80.54367 4939 ft 193 kts 270°
2026-05-03 22:21 26.15120 -80.55850 4930 ft 192 kts 252°
2026-05-03 22:22 26.14357 -80.57033 4938 ft 192 kts 214°
2026-05-03 22:22 26.13095 -80.57451 4945 ft 192 kts 182°
2026-05-03 22:22 26.11754 -80.57361 4943 ft 194 kts 174°
2026-05-03 22:22 26.10464 -80.56969 4934 ft 195 kts 147°
2026-05-03 22:23 26.09590 -80.55864 4946 ft 195 kts 119°
2026-05-03 22:23 26.08990 -80.54510 4942 ft 196 kts 116°
2026-05-03 22:23 26.08436 -80.53124 4941 ft 196 kts 113°
2026-05-03 22:23 26.07953 -80.51705 4928 ft 196 kts 102°
2026-05-03 22:24 26.07816 -80.50211 4589 ft 193 kts 92°
2026-05-03 22:24 26.07774 -80.48721 4173 ft 194 kts 91°
2026-05-03 22:24 26.07769 -80.47724 3991 ft 195 kts 89°
2026-05-03 22:25 26.07900 -80.39527 3942 ft 194 kts 91°
2026-05-03 22:26 26.07873 -80.38027 3940 ft 194 kts 91°
2026-05-03 22:26 26.07836 -80.36528 3945 ft 194 kts 91°
2026-05-03 22:26 26.07802 -80.35031 3942 ft 194 kts 91°
2026-05-03 22:26 26.07783 -80.33533 3905 ft 195 kts 90°
2026-05-03 22:27 26.07786 -80.32030 3697 ft 194 kts 89°
2026-05-03 22:27 26.07791 -80.30524 3720 ft 195 kts 90°
2026-05-03 22:27 26.07785 -80.29021 3909 ft 193 kts 90°
2026-05-03 22:27 26.07768 -80.27514 3620 ft 200 kts 90°
2026-05-03 22:28 26.07753 -80.25957 3040 ft 207 kts 90°
2026-05-03 22:28 26.07742 -80.24337 2366 ft 212 kts 90°
2026-05-03 22:28 26.07731 -80.22716 1712 ft 205 kts 89°
2026-05-03 22:28 26.07715 -80.21158 1089 ft 199 kts 89°
2026-05-03 22:29 26.07714 -80.19668 625 ft 187 kts 89°
2026-05-03 22:29 26.07702 -80.18286 323 ft 172 kts 90°
2026-05-03 22:29 26.07702 -80.16955 109 ft 168 kts 89°
2026-05-03 22:29 26.07693 -80.15731 23 ft 141 kts 89°
2026-05-03 22:30 26.07685 -80.14979 23 ft 55 kts 90°
2026-05-03 22:30 26.07656 -80.14671 27 ft 17 kts 105°
2026-05-03 22:30 26.07646 -80.14637 27 ft 0 kts 111°
2026-05-03 22:31 26.07644 -80.14631 27 ft 3 kts 113°
2026-05-03 22:31 26.07634 -80.14608 27 ft 4 kts 116°
2026-05-03 22:31 26.07625 -80.14588 27 ft 1 kts 117°
2026-05-03 22:31 26.07622 -80.14581 27 ft 0 kts 118°
2026-05-03 22:32 26.07622 -80.14580 27 ft 1 kts 118°
2026-05-03 22:32 26.07614 -80.14565 28 ft 3 kts 118°
2026-05-03 22:33 26.07595 -80.14525 28 ft 11 kts 119°
2026-05-03 22:33 26.07567 -80.14459 29 ft 9 kts 108°
2026-05-03 22:33 26.07559 -80.14320 28 ft 19 kts 90°
2026-05-03 22:33 26.07532 -80.14239 27 ft 10 kts 153°
2026-05-03 22:34 26.07485 -80.14159 27 ft 17 kts 94°
2026-05-03 22:34 26.07485 -80.14030 25 ft 9 kts 98°
2026-05-03 22:34 26.07450 -80.14026 25 ft 8 kts 205°
2026-05-03 22:34 26.07412 -80.14046 27 ft 0 kts 205°
2026-05-03 22:35 26.07411 -80.14046 27 ft 0 kts 205°